Погода в Вишневом

Украина / Одесская область     45°48′23″N   29°46′25″E
темп.,
°C
ветер,
м/с
пор.,
м/с
влажн.,
%
обл.,
%
осадки,
мм/ч
давл.,
гПа
погр.,
м
5 марта, пт
пт523:00+8юз5107427 0.0 1013159
02:00+7юз587836 0.0 1012130
05:00+6зюз457646 0.0 101279
08:00+7ссз356723 0.0 1012130
11:00+10всв11596 0.0 1012330
14:00+14юз244440 0.0 1011844
17:00+13ю2348100 0.0 101157
20:00+11зюз454868 0.0 101263
6 марта, сб
сб623:00+9сз7136534 0.0 1013294
02:00+7ссз6127940 0.0 1016497
05:00+5ссз7117495 0.0 1019833
08:00+3с8116898 0.0 1022898
11:00+4с7946100 0.0 10251264
14:00+6с7841100 0.0 10251566
17:00+5с673667 0.0 10271582
20:00+3с474433 0.0 1028343
7 марта, вс
вс723:00+2с12460 0.0 103049
02:00+1з45541 0.0 1030133
05:000сз35650 0.0 1029148
08:00+1зсз23530 0.0 1029204
11:00+5юз57430 0.0 10281411
14:00+7зюз78390 0.0 10251301
17:00+7зюз79400 0.0 10221133
20:00+3ююз812590 0.0 1021332
8 марта, пн
пн823:00+3ююз510693 0.0 1021226
02:00+2юз5107549 0.0 1019280
05:00+1юз59774 0.0 1018224
08:00+2зюз35742 0.0 1018234
11:00+6ююз225622 0.0 1018483
14:00+8ю234561 0.0 1016852
17:00+6юв346394 0.0 1014219
20:00+5юз366953 0.0 1015131
9 марта, вт
вт923:00+4ююз228385 0.0 101525
02:00+3ссз118462 0.0 101522
05:00+2с58766 0.0 1016200
08:00+3с7106812 0.0 1018477
11:00+5с68510 0.0 1020870
14:00+7ссв56420 0.0 10191103
17:00+6ссв66413 0.0 10191095
20:00+3св48502 0.0 1022400